User: anonymous   Login
Location: Borojevi?i
(45.0486°N, 16.2297°E)
Time: 10:53:59
(UTC+00:00)
Language:

H-2A R/B - Orbit

View from above orbital plane
View from above orbital plane
View from above satellite
View from above satellite

Ground track
Ground track

The orbit data is extracted from the following two-line orbital elements,

1 27601U 02056E   20293.85482133 +.00000079 +00000-0 +43813-4 0  9998
2 27601 098.2154 323.1613 0070909 267.0259 266.6883 14.31975180932497
Epoch (UTC): 19 October 2020 20:30:56
Eccentricity: 0.0070909
inclination: 98.2154°
perigee height: 734 km
apogee height: 836 km
right ascension of ascending node: 323.1613°
argument of perigee: 267.0259°
revolutions per day: 14.31975180
mean anomaly at epoch: 266.6883°
orbit number at epoch: 93249

The dashed part of the orbit path shows where the satellite is in the earth's shadow,  

DLR